COSMOS 886 DEB

Satellite information

Favourite Embed

Satellite Type and Status

DEBRISIN ORBIT

Key statistics

Satellite COSMOS 886 DEB at a glance.

Uptime

17889

Days in orbit

Revolutions

≈ 12.6

Per day

Orbit

MEO

Medium Earth Orbit

Inclination

65.9

Latest

Satellite identification and parameters

Extended collection of information and parameters for COSMOS 886 DEB.

Object identification

Identified? True

Debris? True

Object name: COSMOS 886 DEB

International designator: 1976-126AY

Object number (NORAD): 9958

Object ID (CCSDS): 9958

Country: COMMONWEALTH OF INDEPENDENT STATES (CIS)

Current information (Y/N): Y

RCS size: SMALL

Orbital parameters

Period: 114.122 minutes

Inclination: 65.8713 deg

SMA: 7793.643 km

Apoapsis: 2114.573 km

Periapsis: 716.444 km

RAAN: 177.517 deg

Eccentricy: 0.08969679

Argument of periapsis: 303.5624 deg

Mean anomaly: 48.2815 deg

Mean motion: 12.61804188 rev/day

Mean motion (dot): 0.00000404 rev/day2

B* drag term: 0.00053287066 1/REarth

Two-line elements (TLE)

Creation date: Dec. 18, 2025, 11:20 a.m.

Reference frame: TEME

Reference center: EARTH

Epoch: Dec. 18, 2025, 5:29 a.m. UTC

TLE line 0: 0 COSMOS 886 DEB

TLE line 1: 1 09958U 76126AY 25352.22879804 .00000404 00000-0 53287-3 0 9996

TLE line 2: 2 09958 65.8713 177.5170 0896968 303.5624 48.2815 12.61804188240597

Live tracking on map

Real-time ground track for satellite COSMOS 886 DEB.

In-orbit conjunctions

A list of the most updated potential collisions computed for object COSMOS 886 DEB.

Target Orbit TCA Probability of collision Miss distance Type
CZ-6A DEB SSO 2024-11-15 23:39:33 0.0001317198 354.0 (m) DEBRIS
COSMOS 878 LEO 2024-05-31 00:47:10 0.0001364652 750.0 (m) PAYLOAD

Associated space launch

Second generation ASAT satellite

COSMOS 886 DEB was lifted into orbit during the mission ‘Tsiklon-2 | IS-A 4’, on board a Tsiklon-2 space rocket.

The launch took place on Dec. 27, 1976, 12:05 p.m. from 90.

For more information about the launch, click the button.

Launch to space Tsiklon-2 | IS-A 4
Tsiklon-2 | IS-A 4

Agency: N/A

Status: Launch Successful

Launch date: Dec. 27, 1976, 12:05 p.m. UTC

Rocket: Tsiklon-2

Launch pad: 90

Location: Baikonur Cosmodrome, Republic of Kazakhstan

...

Latest news about this satellite

There are no fresh news available about this satellite. Check back as we update our databases every day.


Newsletter sign-up

Weekly statistics, charts and insights to help you stay on top of the space industry.